Faribault, MN

5:00 PM CDT on March 26, 2017 (GMT -0500)
Faribault Municipal

Weather History for KFBL - April, 2014

Change the Weather History Date:

Sunday, April 6, 2014

  Actual Average Record
Temperature  
Mean Temperature 52 °F -  
Max Temperature 64 °F 52 °F 81 °F (1991)
Min Temperature 39 °F 28 °F 0 °F (1982)
Degree Days  
Heating Degree Days 14    
Growing Degree Days 2 (Base 50)    
Moisture  
Dew Point 34 °F    
Average Humidity 52    
Maximum Humidity 76    
Minimum Humidity 34    
Precipitation  
Precipitation 0.00 in - - ()
Sea Level Pressure  
Sea Level Pressure 29.87 in    
Wind  
Wind Speed 9 mph (SSW)    
Max Wind Speed 18 mph    
Max Gust Speed 24 mph    
Visibility 10 miles    
Events Thunderstorm    
Averages and records for this station are not official NWS values.
T = Trace of Precipitation, MM = Missing Value Source: NWS Daily Summary

Daily Weather History Graph

Daily Weather History Graph

Search for Another Location

Airport or City:

Trip Planner

Search our weather history database for the weather conditions in past years. The results will help you decide how hot, cold, wet, or windy it might be!

Date:

Astronomy

Apr. 06, 2014 Rise Set
Actual Time 6:45 AM CDT 7:46 PM CDT
Civil Twilight 6:15 AM CDT 8:16 PM CDT
Nautical Twilight 5:40 AM CDT 8:51 PM CDT
Astronomical Twilight 5:03 AM CDT 9:29 PM CDT
Moon 11:39 AM CDT (4/6) 1:50 AM CDT (4/6)
Length of Visible Light 14h 00m
Length of Day
13h 01m
Waxing Crescent, 44% of the Moon is Illuminated
Apr 6
Waxing Crescent
Apr 7
First Quarter
Apr 15
Full
Apr 22
Last Quarter
Apr 29
New

Hourly Weather History & Observations

Time (CDT) Temp. Windchill Dew Point Humidity Pressure Visibility Wind Dir Wind Speed Gust Speed Precip Events Conditions
12:14 AM 44.6 °F 39.7 °F 26.6 °F 49% 29.97 in 10.0 mi SSE 9.2 mph - N/A   Clear
12:34 AM 44.6 °F 39.7 °F 26.6 °F 49% 29.96 in 10.0 mi South 9.2 mph - N/A   Clear
12:54 AM 44.6 °F 40.2 °F 26.6 °F 49% 29.96 in 10.0 mi South 8.1 mph - N/A   Scattered Clouds
1:14 AM 44.6 °F 39.2 °F 26.6 °F 49% 29.96 in 10.0 mi South 10.4 mph - N/A   Mostly Cloudy
1:34 AM 42.8 °F 36.6 °F 26.6 °F 53% 29.95 in 10.0 mi South 11.5 mph - N/A   Mostly Cloudy
1:54 AM 42.8 °F 37.0 °F 26.6 °F 53% 29.95 in 10.0 mi South 10.4 mph 16.1 mph N/A   Scattered Clouds
2:14 AM 42.8 °F 37.0 °F 26.6 °F 53% 29.95 in 10.0 mi South 10.4 mph - N/A   Mostly Cloudy
2:34 AM 41.0 °F 34.7 °F 28.4 °F 61% 29.95 in 10.0 mi South 10.4 mph - N/A   Overcast
2:54 AM 41.0 °F 34.7 °F 28.4 °F 61% 29.94 in 10.0 mi South 10.4 mph - N/A   Mostly Cloudy
3:14 AM 41.0 °F 35.2 °F 26.6 °F 57% 29.93 in 10.0 mi South 9.2 mph - N/A   Mostly Cloudy
3:34 AM 41.0 °F 35.2 °F 26.6 °F 57% 29.92 in 10.0 mi South 9.2 mph - N/A   Overcast
3:54 AM 41.0 °F 34.7 °F 26.6 °F 57% 29.92 in 10.0 mi South 10.4 mph - N/A   Overcast
4:14 AM 41.0 °F 34.7 °F 28.4 °F 61% 29.92 in 10.0 mi South 10.4 mph - N/A   Overcast
4:34 AM 41.0 °F 34.7 °F 28.4 °F 61% 29.91 in 10.0 mi South 10.4 mph - N/A   Overcast
4:54 AM 41.0 °F 34.7 °F 28.4 °F 61% 29.91 in 10.0 mi South 10.4 mph - N/A   Overcast
5:13 AM 39.2 °F 33.0 °F 28.4 °F 65% 29.90 in 10.0 mi South 9.2 mph - N/A   Scattered Clouds
5:34 AM 39.2 °F 32.5 °F 28.4 °F 65% 29.89 in 10.0 mi South 10.4 mph - N/A   Clear
5:54 AM 39.2 °F 33.0 °F 28.4 °F 65% 29.89 in 10.0 mi South 9.2 mph - N/A   Clear
6:13 AM 39.2 °F 32.0 °F 28.4 °F 65% 29.88 in 10.0 mi South 11.5 mph - N/A   Clear
6:34 AM 41.0 °F 35.8 °F 28.4 °F 61% 29.89 in 10.0 mi South 8.1 mph - N/A   Scattered Clouds
6:54 AM 42.8 °F 39.3 °F 28.4 °F 57% 29.90 in 10.0 mi South 5.8 mph - N/A   Scattered Clouds
7:14 AM 42.8 °F 38.0 °F 28.4 °F 57% 29.90 in 10.0 mi South 8.1 mph - N/A   Mostly Cloudy
7:34 AM 42.8 °F 38.0 °F 28.4 °F 57% 29.90 in 10.0 mi SSE 8.1 mph - N/A   Mostly Cloudy
7:54 AM 44.6 °F 40.2 °F 30.2 °F 57% 29.90 in 10.0 mi South 8.1 mph - N/A   Scattered Clouds
8:14 AM 46.4 °F 41.9 °F 30.2 °F 53% 29.90 in 10.0 mi South 9.2 mph - N/A   Scattered Clouds
8:34 AM 46.4 °F 41.9 °F 30.2 °F 53% 29.89 in 10.0 mi South 9.2 mph 16.1 mph N/A   Clear
8:54 AM 48.2 °F - 30.2 °F 50% 29.89 in 10.0 mi South 13.8 mph 19.6 mph N/A   Clear
9:14 AM 48.2 °F - 30.2 °F 50% 29.88 in 10.0 mi South 12.7 mph 18.4 mph N/A   Scattered Clouds
9:34 AM 50.0 °F - 32.0 °F 50% 29.88 in 10.0 mi SSW 16.1 mph 20.7 mph N/A   Scattered Clouds
9:53 AM 50.0 °F - 32.0 °F 50% 29.88 in 10.0 mi SSW 15.0 mph 20.7 mph N/A   Mostly Cloudy
10:14 AM 51.8 °F - 33.8 °F 50% 29.88 in 10.0 mi SSW 13.8 mph 23.0 mph N/A   Scattered Clouds
10:34 AM 51.8 °F - 33.8 °F 50% 29.88 in 10.0 mi SSW 18.4 mph 23.0 mph N/A   Scattered Clouds
10:53 AM 51.8 °F - 35.6 °F 54% 29.88 in 10.0 mi SSW 11.5 mph 19.6 mph N/A   Scattered Clouds
11:14 AM 53.6 °F - 33.8 °F 47% 29.88 in 7.0 mi SW 15.0 mph 24.2 mph N/A   Mostly Cloudy
11:34 AM 55.4 °F - 35.6 °F 47% 29.87 in 10.0 mi SW 12.7 mph 18.4 mph N/A   Scattered Clouds
11:54 AM 55.4 °F - 35.6 °F 47% 29.87 in 7.0 mi SW 12.7 mph 18.4 mph N/A   Scattered Clouds
12:14 PM 55.4 °F - 35.6 °F 47% 29.86 in 10.0 mi SW 16.1 mph 19.6 mph N/A   Scattered Clouds
12:34 PM 57.2 °F - 35.6 °F 44% 29.86 in 10.0 mi SW 16.1 mph - N/A   Clear
12:54 PM 57.2 °F - 35.6 °F 44% 29.85 in 7.0 mi SW 13.8 mph 19.6 mph N/A   Clear
1:14 PM 59.0 °F - 35.6 °F 42% 29.85 in 10.0 mi SW 15.0 mph - N/A   Clear
1:33 PM 60.8 °F - 37.4 °F 42% 29.84 in 10.0 mi WSW 11.5 mph - N/A   Clear
1:54 PM 62.6 °F - 39.2 °F 42% 29.84 in 10.0 mi SW 10.4 mph - N/A   Clear
2:14 PM 62.6 °F - 39.2 °F 42% 29.83 in 10.0 mi SW 10.4 mph - N/A   Clear
2:34 PM 62.6 °F - 37.4 °F 39% 29.83 in 10.0 mi WSW 11.5 mph - N/A   Clear
2:54 PM 62.6 °F - 39.2 °F 42% 29.83 in 10.0 mi WSW 9.2 mph 16.1 mph N/A   Clear
3:14 PM 64.4 °F - 39.2 °F 40% 29.82 in 10.0 mi West 9.2 mph - N/A   Clear
3:34 PM 62.6 °F - 39.2 °F 42% 29.82 in 10.0 mi WSW 10.4 mph - N/A   Clear
3:54 PM 64.4 °F - 37.4 °F 37% 29.82 in 10.0 mi West 8.1 mph - N/A   Clear
4:13 PM 64.4 °F - 37.4 °F 37% 29.82 in 10.0 mi SW 9.2 mph - N/A   Clear
4:34 PM 64.4 °F - 39.2 °F 40% 29.82 in 10.0 mi SSW 6.9 mph - N/A Thunderstorm Clear
4:54 PM 64.4 °F - 39.2 °F 40% 29.81 in 10.0 mi SW 3.5 mph - N/A   Clear
5:13 PM 64.4 °F - 37.4 °F 37% 29.81 in 10.0 mi WSW 4.6 mph - N/A   Clear
5:34 PM 64.4 °F - 37.4 °F 37% 29.81 in 10.0 mi SW 4.6 mph - N/A   Clear
5:54 PM 64.4 °F - 35.6 °F 34% 29.81 in 10.0 mi West 3.5 mph - N/A   Clear
6:14 PM 64.4 °F - 35.6 °F 34% 29.81 in 10.0 mi West 3.5 mph - N/A Thunderstorm Clear
6:34 PM 62.6 °F - 35.6 °F 37% 29.82 in 10.0 mi Calm Calm - N/A Thunderstorm Clear
6:54 PM 62.6 °F - 35.6 °F 37% 29.82 in 10.0 mi Calm Calm - N/A Thunderstorm Clear
7:14 PM 62.6 °F - 37.4 °F 39% 29.82 in 10.0 mi SSE 3.5 mph - N/A Thunderstorm Mostly Cloudy
7:34 PM 60.8 °F - 39.2 °F 45% 29.83 in 10.0 mi SSE 4.6 mph - N/A Thunderstorm Overcast
7:54 PM 57.2 °F - 44.6 °F 63% 29.84 in 10.0 mi South 8.1 mph - N/A   Mostly Cloudy
8:14 PM 57.2 °F - 42.8 °F 59% 29.84 in 10.0 mi South 8.1 mph - N/A   Scattered Clouds
8:34 PM 55.4 °F - 42.8 °F 63% 29.85 in 10.0 mi South 6.9 mph - N/A   Mostly Cloudy
8:54 PM 55.4 °F - 42.8 °F 63% 29.85 in 10.0 mi South 6.9 mph - N/A   Scattered Clouds
9:14 PM 53.6 °F - 42.8 °F 67% 29.86 in 10.0 mi South 5.8 mph - N/A   Scattered Clouds
9:34 PM 53.6 °F - 39.2 °F 58% 29.87 in 10.0 mi South 6.9 mph - N/A   Mostly Cloudy
9:54 PM 53.6 °F - 39.2 °F 58% 29.86 in 10.0 mi South 6.9 mph - N/A Thunderstorm Mostly Cloudy
10:14 PM 51.8 °F - 41.0 °F 67% 29.87 in 10.0 mi South 4.6 mph - N/A   Scattered Clouds
10:34 PM 51.8 °F - 41.0 °F 67% 29.87 in 10.0 mi South 5.8 mph - N/A   Clear
10:54 PM 51.8 °F - 42.8 °F 71% 29.87 in 10.0 mi South 5.8 mph - N/A   Scattered Clouds
11:14 PM 50.0 °F - 41.0 °F 71% 29.87 in 10.0 mi South 4.6 mph - N/A   Clear
11:34 PM 48.2 °F - 41.0 °F 76% 29.87 in 10.0 mi South 3.5 mph - N/A   Clear
11:54 PM 48.2 °F - 39.2 °F 71% 29.87 in 10.0 mi SSE 3.5 mph - N/A   Clear